Location: Ch�risy
(50.2331°N, 2.9131°E)
Time: 22:36:46
(UTC+00:00)

Cosmos 1833 Rocket - Pass Details

Date: 17 January 2021
Orbit: 833 x 839 km, 71.0° (Epoch: 01 March)

Event Time Altitude Azimuth Distance (km) Brightness Sun altitude
Rises 18:36:40 0° 333° (NNW) 3,392 6.1 -21.7°
Reaches altitude 10° 18:39:34 10° 347° (NNW) 2,455 5.2 -22.1°
Enters shadow 18:42:53 23° 21° (NNE) 1,714 4.0 -22.7°
